| time (UTC) | temp F | wind direction | speed MPH | gust MPH | rain 1hr in | rain 24hr in | rain mn in | humidity % | barometer mb |
| 20260901023042 | 66 | 200 | 0.0 | 0.0 | 0.04 | 0.06 | 0.06 | 74 | 1010.1 |
| 20260901021558 | 67 | 194 | 0.0 | 15.0 | 0.02 | 0.04 | 0.04 | 67 | 1009.4 |
| 20260901020058 | 69 | 178 | 6.0 | 13.0 | 0.00 | 0.02 | 0.02 | 57 | 1008.2 |
| 20260901014537 | 69 | 239 | 0.0 | 0.0 | 0.01 | 0.02 | 0.02 | 57 | 1007.2 |
| 20260901013042 | 69 | 310 | 0.0 | 0.0 | 0.02 | 0.02 | 0.02 | 56 | 1007.1 |
| 20260901011540 | 70 | 360 | 0.0 | 0.0 | 0.02 | 0.02 | 0.02 | 58 | 1007.0 |
| 20260901010040 | 72 | 310 | 0.0 | 5.0 | 0.02 | 0.02 | 0.02 | 55 | 1007.6 |
| 20260901004537 | 76 | 323 | 2.0 | 12.0 | 0.01 | 0.01 | 0.01 | 48 | 1007.5 |
| 20260901003040 | 81 | 78 | 0.0 | 0.0 | 0.00 | 0.00 | 0.00 | 33 | 1006.7 |
| 20260901001537 | 82 | 79 | 0.0 | 0.0 | 0.00 | 0.00 | 0.00 | 32 | 1006.7 |
| 20260901000034 | 83 | 79 | 0.0 | 0.0 | 0.00 | 0.00 | 0.00 | 30 | 1006.6 |
| 20260831234541 | 85 | 108 | 0.0 | 3.0 | 0.00 | 0.00 | 0.00 | 29 | 1006.7 |
| 20260831233043 | 85 | 92 | 0.0 | 0.0 | 0.00 | 0.00 | 0.00 | 28 | 1006.7 |
| 20260831231530 | 85 | 91 | 0.0 | 3.0 | 0.00 | 0.00 | 0.00 | 28 | 1006.7 |
| 20260831230128 | 84 | 72 | 0.0 | 7.0 | 0.00 | 0.00 | 0.00 | 29 | 1006.8 |
| 20260831224526 | 84 | 82 | 1.0 | 7.0 | 0.00 | 0.00 | 0.00 | 29 | 1007.0 |
| 20260831223023 | 83 | 71 | 0.0 | 0.0 | 0.00 | 0.00 | 0.00 | 31 | 1007.2 |
| 20260831221524 | 83 | 69 | 0.0 | 0.0 | 0.00 | 0.00 | 0.00 | 33 | 1007.5 |
| 20260831220024 | 83 | 69 | 0.0 | 3.0 | 0.00 | 0.00 | 0.00 | 30 | 1007.7 |
| 20260831214521 | 83 | 90 | 0.0 | 2.0 | 0.00 | 0.00 | 0.00 | 31 | 1007.6 |
| 20260831213030 | 83 | 144 | 0.0 | 0.0 | 0.00 | 0.00 | 0.00 | 31 | 1008.0 |
| 20260831211517 | 82 | 88 | 0.0 | 3.0 | 0.00 | 0.00 | 0.00 | 32 | 1008.1 |
| 20260831210020 | 82 | 108 | 0.0 | 0.0 | 0.00 | 0.00 | 0.00 | 32 | 1008.4 |
| 20260831204515 | 81 | 108 | 0.0 | 0.0 | 0.00 | 0.02 | 0.00 | 33 | 1008.5 |
| 20260831203011 | 81 | 118 | 0.0 | 0.0 | 0.00 | 0.02 | 0.00 | 33 | 1008.8 |
| 20260831201511 | 80 | 72 | 0.0 | 0.0 | 0.00 | 0.02 | 0.00 | 32 | 1009.1 |
| 20260831200020 | 81 | 65 | 0.0 | 0.0 | 0.00 | 0.02 | 0.00 | 32 | 1009.2 |
| 20260831194510 | 80 | 114 | 0.0 | 0.0 | 0.00 | 0.02 | 0.00 | 34 | 1009.4 |
| 20260831193009 | 80 | 169 | 0.0 | 0.0 | 0.00 | 0.02 | 0.00 | 33 | 1009.6 |
| 20260831191502 | 79 | 126 | 0.0 | 0.0 | 0.00 | 0.02 | 0.00 | 35 | 1009.8 |
| 20260831190119 | 79 | 125 | 0.0 | 0.0 | 0.00 | 0.02 | 0.00 | 36 | 1010.0 |
| 20260831184625 | 78 | 125 | 0.0 | 0.0 | 0.00 | 0.02 | 0.00 | 37 | 1010.1 |
| 20260831183106 | 78 | 124 | 0.0 | 0.0 | 0.00 | 0.02 | 0.00 | 35 | 1010.2 |
| 20260831181557 | 78 | 126 | 0.0 | 0.0 | 0.00 | 0.02 | 0.00 | 37 | 1010.2 |
| 20260831180055 | 78 | 142 | 0.0 | 0.0 | 0.00 | 0.02 | 0.00 | 38 | 1010.3 |
| 20260831174600 | 76 | 113 | 0.0 | 0.0 | 0.00 | 0.02 | 0.00 | 38 | 1010.4 |
| 20260831173100 | 76 | 113 | 0.0 | 0.0 | 0.00 | 0.02 | 0.00 | 39 | 1010.5 |
| 20260831171550 | 76 | 113 | 0.0 | 0.0 | 0.00 | 0.02 | 0.00 | 40 | 1010.5 |
| 20260831170056 | 76 | 121 | 0.0 | 0.0 | 0.00 | 0.02 | 0.00 | 40 | 1010.5 |
| 20260831163051 | 75 | 191 | 0.0 | 0.0 | 0.00 | 0.02 | 0.00 | 42 | 1010.5 |
| 20260831161544 | 75 | 191 | 0.0 | 0.0 | 0.00 | 0.02 | 0.00 | 43 | 1010.3 |
| 20260831160047 | 75 | 192 | 0.0 | 0.0 | 0.00 | 0.02 | 0.00 | 44 | 1010.2 |
| 20260831154540 | 74 | 192 | 0.0 | 0.0 | 0.00 | 0.02 | 0.00 | 48 | 1010.2 |
| 20260831153038 | 73 | 200 | 0.0 | 0.0 | 0.00 | 0.02 | 0.00 | 46 | 1010.3 |
| 20260831151534 | 71 | 277 | 0.0 | 0.0 | 0.00 | 0.02 | 0.00 | 48 | 1010.2 |
| 20260831150030 | 69 | 277 | 0.0 | 0.0 | 0.00 | 0.02 | 0.00 | 51 | 1010.4 |
| 20260831144545 | 66 | 277 | 0.0 | 0.0 | 0.00 | 0.02 | 0.00 | 55 | 1010.5 |
| 20260831143035 | 64 | 280 | 0.0 | 0.0 | 0.00 | 0.02 | 0.00 | 61 | 1010.5 |
| 20260831141529 | 62 | 280 | 0.0 | 0.0 | 0.00 | 0.02 | 0.00 | 68 | 1010.4 |
| 20260831140027 | 61 | 280 | 0.0 | 0.0 | 0.00 | 0.02 | 0.00 | 69 | 1010.2 |
| 20260831134524 | 60 | 280 | 0.0 | 0.0 | 0.00 | 0.02 | 0.00 | 69 | 1009.9 |
| 20260831133023 | 59 | 280 | 0.0 | 0.0 | 0.00 | 0.02 | 0.00 | 69 | 1009.8 |
| 20260831131521 | 58 | 280 | 0.0 | 0.0 | 0.00 | 0.02 | 0.00 | 68 | 1009.5 |
| 20260831130022 | 58 | 280 | 0.0 | 0.0 | 0.00 | 0.02 | 0.00 | 69 | 1009.2 |
| 20260831124517 | 58 | 280 | 0.0 | 0.0 | 0.00 | 0.02 | 0.00 | 70 | 1009.1 |
| 20260831123016 | 58 | 280 | 0.0 | 0.0 | 0.00 | 0.02 | 0.00 | 69 | 1008.8 |
| 20260831121524 | 57 | 280 | 0.0 | 0.0 | 0.00 | 0.02 | 0.00 | 69 | 1008.7 |
| 20260831120019 | 57 | 280 | 0.0 | 0.0 | 0.00 | 0.02 | 0.00 | 69 | 1008.5 |
| 20260831114512 | 57 | 280 | 0.0 | 0.0 | 0.00 | 0.02 | 0.00 | 71 | 1008.4 |
| 20260831113012 | 57 | 280 | 0.0 | 0.0 | 0.00 | 0.02 | 0.00 | 72 | 1008.5 |
| 20260831111510 | 57 | 280 | 0.0 | 0.0 | 0.00 | 0.02 | 0.00 | 72 | 1008.3 |
| 20260831110009 | 58 | 280 | 0.0 | 0.0 | 0.00 | 0.02 | 0.00 | 71 | 1008.3 |
| 20260831104510 | 58 | 280 | 0.0 | 0.0 | 0.00 | 0.02 | 0.00 | 72 | 1008.2 |
| 20260831103004 | 59 | 280 | 0.0 | 0.0 | 0.00 | 0.02 | 0.00 | 72 | 1008.1 |
| 20260831101502 | 59 | 280 | 0.0 | 0.0 | 0.00 | 0.02 | 0.00 | 73 | 1008.2 |
| 20260831100106 | 60 | 280 | 0.0 | 0.0 | 0.00 | 0.02 | 0.00 | 71 | 1008.1 |
| 20260831094558 | 60 | 280 | 0.0 | 0.0 | 0.00 | 0.02 | 0.00 | 70 | 1007.9 |
| 20260831093155 | 60 | 280 | 0.0 | 0.0 | 0.00 | 0.02 | 0.00 | 70 | 1007.7 |
| 20260831091554 | 61 | 280 | 0.0 | 0.0 | 0.00 | 0.02 | 0.00 | 69 | 1007.6 |
| 20260831090052 | 61 | 280 | 0.0 | 0.0 | 0.00 | 0.02 | 0.00 | 68 | 1007.6 |
| 20260831084559 | 62 | 280 | 0.0 | 0.0 | 0.00 | 0.02 | 0.00 | 68 | 1007.5 |
| 20260831083050 | 62 | 280 | 0.0 | 0.0 | 0.00 | 0.02 | 0.00 | 68 | 1007.7 |
| 20260831081605 | 63 | 216 | 0.0 | 0.0 | 0.00 | 0.02 | 0.00 | 69 | 1007.7 |
| 20260831080042 | 63 | 216 | 0.0 | 0.0 | 0.00 | 0.02 | 0.00 | 68 | 1007.8 |
| 20260831074544 | 64 | 192 | 0.0 | 0.0 | 0.00 | 0.02 | 0.00 | 67 | 1007.9 |
| 20260831073101 | 65 | 119 | 0.0 | 0.0 | 0.00 | 0.02 | 0.00 | 66 | 1008.2 |
| 20260831071532 | 65 | 119 | 0.0 | 0.0 | 0.00 | 0.02 | 0.00 | 64 | 1008.4 |
| 20260831070033 | 66 | 119 | 0.0 | 0.0 | 0.00 | 0.02 | 0.00 | 61 | 1008.4 |
| 20260831064534 | 68 | 123 | 0.0 | 0.0 | 0.00 | 0.02 | 0.00 | 58 | 1008.4 |
| 20260831063023 | 69 | 122 | 0.0 | 0.0 | 0.00 | 0.02 | 0.00 | 54 | 1008.5 |
| 20260831061530 | 69 | 122 | 0.0 | 11.0 | 0.00 | 0.02 | 0.00 | 47 | 1008.6 |
| 20260831060016 | 69 | 183 | 1.0 | 5.0 | 0.00 | 0.02 | 0.00 | 45 | 1008.5 |
| 20260831054515 | 69 | 240 | 0.0 | 0.0 | 0.00 | 0.02 | 0.02 | 48 | 1008.6 |
| 20260831053021 | 69 | 280 | 0.0 | 14.0 | 0.00 | 0.02 | 0.02 | 48 | 1008.9 |
| 20260831051514 | 68 | 245 | 2.0 | 14.0 | 0.00 | 0.02 | 0.02 | 50 | 1008.8 |
| 20260831050033 | 65 | 236 | 0.0 | 3.0 | 0.00 | 0.02 | 0.02 | 58 | 1009.5 |
| 20260831044513 | 64 | 248 | 0.0 | 0.0 | 0.00 | 0.02 | 0.02 | 71 | 1009.7 |
| 20260831043013 | 62 | 215 | 0.0 | 0.0 | 0.00 | 0.02 | 0.02 | 72 | 1009.4 |
| 20260831041507 | 62 | 80 | 0.0 | 0.0 | 0.00 | 0.02 | 0.02 | 73 | 1009.0 |
| 20260831040018 | 62 | 80 | 0.0 | 0.0 | 0.00 | 0.02 | 0.02 | 76 | 1008.7 |
| 20260831034506 | 62 | 80 | 0.0 | 0.0 | 0.00 | 0.02 | 0.02 | 75 | 1008.5 |
| 20260831033005 | 62 | 80 | 0.0 | 0.0 | 0.00 | 0.02 | 0.02 | 75 | 1008.6 |
| 20260831030104 | 63 | 80 | 0.0 | 0.0 | 0.00 | 0.02 | 0.02 | 73 | 1007.9 |
| 20260831024559 | 64 | 80 | 0.0 | 0.0 | 0.00 | 0.02 | 0.02 | 70 | 1008.1 |